Location: Grange Verzio
(44.5000°N, 6.9833°E)
Time: 17:56:59
(UTC+00:00)

Cosmos 2219 Rocket - Pass Details

Date: 03 October 2023
Orbit: 826 x 848 km, 71.0° (Epoch: 08 December)

Event Time Altitude Azimuth Distance (km) Brightness Sun altitude
Rises 03:06:34 0° 330° (NNW) 3,399 5.3 -26.2°
Enters shadow 03:08:17 - 328° (NNW) 2,749 4.8 -25.9°
Exits shadow 03:19:04 15° 178° (S) 2,109 4.1 -24.1°
Drops below altitude 10° 03:20:02 10° 175° (S) 2,460 4.5 -24.0°
Sets 03:22:31 0° 171° (S) 3,392 5.3 -23.5°
